Zurück zum Katalog

3CAT-5/B

TYVAK-0162

AktivWissenschaftSSO
NORAD 46293·PAYLOAD·🇪🇸 Spain

Gestartet Sep 3, 2020 von Guiana Space Centre

Loading…

Nächste Überflüge (nächste 24 Stunden)

TLE

AktuellSource: Space-Track

Epoche: Sep 14, 2026, 10:37 UTC

1 46293U 20061X   26257.44241698  .00014730  00000-0  26141-3 0  9995
2 46293  97.2293 321.5196 0003118 131.4873 228.6647 15.50315336334877

Verfolge 3CAT-5/B in Echtzeit mit AllMySat

Download on the App Store